Powrót do katalogu

STARLINK-32937

AktywnyŁącznośćVLEO
NORAD 63148·PAYLOAD·🇺🇸 United States

Wystrzelony Mar 3, 2025 z Cape Canaveral Space Force Station

Loading…

Następne Przeloty (najbliższe 24 godziny)

TLE

ŚwieżeSource: CelesTrak SupGP

Epoka: Sep 14, 2026, 21:29 UTC

1 63148C 25043S   26257.89562500  .00042646  00000+0  15450-2 0  2578
2 63148  43.0017  27.6379 0001227 278.0456 297.7184 15.27550436    14

Śledź STARLINK-32937 w czasie rzeczywistym z AllMySat

Download on the App Store